• MPC Preparation (Info)

  • MPEC 2017-R11 : 2017 QB35

    The following Minor Planet Electronic Circular may be linked-to from your own Web pages, but must not otherwise be redistributed electronically.

    A form allowing access to any MPEC is at the bottom of this page.


    Read MPEC 2017-R10 Read MPEC 2017-R12


    M.P.E.C. 2017-R11                                Issued 2017 Sept. 1, 14:18 UT
    
         The Minor Planet Electronic Circulars contain information on unusual
             minor planets and routine data on comets.  They are published
        on behalf of Division F of the International Astronomical Union by the
              Minor Planet Center, Smithsonian Astrophysical Observatory,
                              Cambridge, MA 02138, U.S.A.
    
                 Prepared using the Tamkin Foundation Computer Network
    
                                  MPC@CFA.HARVARD.EDU
                URL https://www.minorplanetcenter.net/    ISSN 1523-6714
    
                                       2017 QB35
    
    Observations:
         K17Q35B* C2017 08 31.42829 23 35 46.69 +25 05 26.6          19.8 VqER011G96
         K17Q35B  C2017 08 31.43505 23 35 46.30 +25 02 42.8          20.0 VqER011G96
         K17Q35B  C2017 08 31.43928 23 35 46.10 +25 00 58.7                qER011G96
         K17Q35B  C2017 08 31.44350 23 35 45.91 +24 59 16.9          19.9 VqER011G96
         K17Q35B  C2017 08 31.44936 23 35 45.73 +24 56 51.6                qER011G96
         K17Q35B  C2017 08 31.44976 23 35 45.70 +24 56 42.1                qER011G96
         K17Q35B  C2017 08 31.45017 23 35 45.70 +24 56 32.4          20.2 VqER011G96
         K17Q35B  C2017 08 31.45057 23 35 45.67 +24 56 22.1          20.0 VqER011G96
         K17Q35B  C2017 08 31.45701823 35 42.79 +24 52 52.2          19.3 GUER011H01
         K17Q35B  C2017 08 31.46408323 35 42.92 +24 49 54.6          19.9 GUER011H01
         K17Q35B  C2017 08 31.47150323 35 43.18 +24 46 46.7          20.0 GUER011H01
         K17Q35B  C2017 08 31.47783723 35 43.51 +24 44 05.0          20.0 GUER011H01
         K17Q35B KC2017 08 31.99406423 40 48.81 +20 39 46.4                UER011J95
         K17Q35B KC2017 08 31.99686123 40 49.10 +20 38 16.1                UER011J95
         K17Q35B KC2017 08 31.99925823 40 49.38 +20 36 58.0          19.6 GUER011J95
         K17Q35B  C2017 09 01.16856723 43 21.70 +19 00 52.9          19.0 GUER011H01
         K17Q35B  C2017 09 01.17523423 43 23.70 +18 56 58.4          19.1 GUER011H01
         K17Q35B  C2017 09 01.18433723 43 26.22 +18 51 34.8          18.8 GUER011H01
         K17Q35B  C2017 09 01.19588223 43 29.06 +18 44 40.1          18.7 GUER011H01
         K17Q35B  C2017 09 01.34986 23 43 47.33 +17 03 53.7          19.2 VqER011G96
         K17Q35B  C2017 09 01.35026 23 43 47.32 +17 03 36.1          19.3 VqER011G96
    
    Observer details:
    G96 Mt. Lemmon Survey.  Observers R. G. Matheny, J. A. Johnson.  Measurers
        E. J. Christensen, D. C. Fuls, A. R. Gibbs, A. D. Grauer, J. A. Johnson,
        R. A. Kowalski, S. M. Larson, G. J. Leonard, R. G. Matheny, R. L. Seaman,
        F. C. Shelly.  1.5-m reflector + 10K CCD.
    H01 Magdalena Ridge Observatory, Socorro.  Observers W. H. Ryan, E. V. Ryan.
        Measurer W. H. Ryan.  2.4-m f/8.9 reflector + CCD.
    J95 Great Shefford.  Observer P. Birtwhistle.  0.40-m f/6.0 Schmidt-Cassegrain
        + CCD.
    
    Orbital elements:
    2017 QB35                                                Earth MOID = 0.0024 AU
    Epoch 2017 Sept. 4.0 TT = JDT 2458000.5                 MPC
    M 238.76651              (2000.0)            P               Q
    n   1.10244437     Peri.  315.58362     -0.42910560     -0.90268350
    a   0.9280362      Node   159.76092     +0.85241217     -0.41645388
    e   0.1428541      Incl.    5.32543     +0.29876725     -0.10829898
    P   0.89           H   29.3           G   0.15           U   5
    Residuals in seconds of arc
    170831 G96  0.1-  0.2+    170831 G96  0.2-  0.1+    170831 J95  0.0   0.3+
    170831 G96  0.0   0.1+    170831 H01  0.0   0.0     170901 H01  0.2-  0.1+
    170831 G96  0.1+  1.0-    170831 H01  0.1-  0.0     170901 H01  0.1-  0.3+
    170831 G96  0.0   0.6+    170831 H01  0.1-  0.0     170901 H01  0.0   0.1-
    170831 G96  0.2+  0.4-    170831 H01  0.0   0.1-    170901 H01  0.0   0.3-
    170831 G96  0.0   0.0     170831 J95  0.2+  0.5-    170901 G96  0.0   0.1+
    170831 G96  0.1+  0.5+    170831 J95  0.2-  0.2+    170901 G96  0.1-  0.2-
    
    Ephemeris:
    2017 QB35                a,e,i = 0.93, 0.14, 5                   q = 0.7955
    Date    TT    R. A. (2000) Decl.     Delta      r     Elong.  Phase     V
    2017 08 02    23 06 20.8 +39 45 55   0.07255 1.0465   114.0    62.3    25.9
    ...
    2017 08 17    23 15 29.2 +40 31 59   0.03934 1.0339   122.1    56.1    24.4
    ...
    2017 08 25    23 21 00.2 +38 22 44   0.02136 1.0243   128.4    50.6    22.9
    ...
    2017 08 31    23 34 00.6 +27 31 37   0.0080441.0157   141.2    38.5    20.4
    2017 09 01    23 40 30.2 +20 49 48   0.0059151.0142   147.3    32.5    19.6
    2017 09 02    23 52 21.7 +06 59 22   0.0039361.0126   157.3    22.6    18.4
    ...
    2017 09 08    11 01 44.9 -50 27 10   0.01082 1.0015    56.3   123.2    24.6
    ...
    2017 09 16    11 16 17.6 -41 43 53   0.02870 0.9852    44.7   134.2    27.7
    ...
    2017 10 01    11 22 47.9 -36 39 30   0.06347 0.9512    36.8   140.9    30.2
    
    A. U. Tomatic                (C) Copyright 2017 MPC           M.P.E.C. 2017-R11
    

    Read MPEC 2017-R10 Read MPEC 2017-R12


    MPEC number:

    Enter an MPEC number in one of the following forms:

    • 1997-B01 (the full form)
    • J97B01 (the packed version of the full form)
    • B01 (the abbreviated form)